Flag for Angola Weather past 2 weeks in Cabinda, Angola

79 °F

Passing clouds.

Feels Like: 82 °F
Forecast: 79 / 84 °F
Wind: 2 mph from Southeast

Location: Pointe Airport-Noire

Current Time: Nov 30, 2015 at 2:55:01 AM

Latest Report: Nov 30, 2015 at 1:00 AM

Visibility: 5 mi

Pressure: 29.92 "Hg

Humidity: 89%

Dew point: 75 °F

Location of CabindaLocation

Historic Weather in Cabinda — Graph


Cabinda temperature yesterday

Maximum temperature yesterday: 88 °F (at 2:00 PM)
Minimum temperature yesterday: 77 °F (at 5:00 AM)
Average temperature yesterday: 81 °F

Past Weeks' High & Low Weather Summary

High88 °F (Nov 29, 2:00 PM)100% (Nov 23, 7:00 AM)29.98 "Hg (Nov 23, 7:00 AM)
Low75 °F (Nov 23, 6:00 AM)62% (Nov 16, 1:00 PM)29.74 "Hg (Nov 21, 4:00 PM)
Average81 °F82%29.86 "Hg
* Reported Nov 15 1:00 AM — Nov 30 1:00 AM, Cabinda, Weather by CustomWeather, © 2015

Note: Actual official high and low records may vary slightly from our data, if they occured in-between our weather recording intervals... More about our weather records


Cabinda weather history for previous 24 hours

Time TempWeatherWind HumidityBarometerVisibility
1:00 AM
Mon, Nov 30
79 °FPassing clouds.2 mph89%29.92 "Hg5 mi
12:00 AM79 °FPassing clouds.5 mph84%29.92 "Hg5 mi
11:00 PM
Sun, Nov 29
79 °FPassing clouds.5 mph89%29.95 "Hg5 mi
10:00 PM81 °FPassing clouds.7 mph84%29.92 "Hg5 mi
9:00 PM81 °FPassing clouds.6 mph84%29.92 "Hg5 mi
8:00 PM81 °FPassing clouds.9 mph84%29.89 "Hg5 mi
7:00 PM82 °FPassing clouds.9 mph79%29.89 "Hg5 mi
6:00 PM82 °FScattered clouds.7 mph79%29.86 "HgN/A
5:00 PM82 °FScattered clouds.7 mph74%29.86 "HgN/A
4:00 PM84 °FScattered clouds.7 mph70%29.86 "HgN/A
3:00 PM86 °FScattered clouds.9 mph66%29.86 "HgN/A
2:00 PM88 °FScattered clouds.12 mph62%29.89 "HgN/A
1:00 PM86 °FBroken clouds.9 mph66%29.92 "HgN/A
12:00 PM82 °FPartly sunny.6 mph70%29.95 "HgN/A
11:00 AM82 °FPartly sunny.9 mph70%29.98 "HgN/A
10:00 AM81 °FPartly sunny.8 mph74%29.98 "HgN/A
9:00 AM81 °FBroken clouds.5 mph79%29.98 "HgN/A
8:00 AM79 °FPartly sunny.7 mph84%29.98 "HgN/A
7:00 AM77 °FLight rain. More clouds than sun.5 mph94%29.95 "Hg4 mi
6:00 AM77 °FMore clouds than sun.6 mph94%29.92 "Hg4 mi
5:00 AM77 °FMostly cloudy.6 mph94%29.89 "Hg4 mi
4:00 AM79 °FMostly cloudy.3 mph89%29.89 "Hg4 mi
3:00 AM79 °FLight rain. Mostly cloudy.3 mph94%29.89 "Hg4 mi
2:00 AM79 °FLight rain. Mostly cloudy.2 mph89%29.92 "Hg4 mi
Weather by CustomWeather, © 2015

See weather overviewHow to use our weather pages